Miscellaneous Local Product
Issued by NWS North Platte, NE

Home | Current Version | Previous Version | Text Only | Print | Product List | Glossary On
Versions: 1 2 3 4 5 6 7 8 9 10 11 12 13 14 15 16 17 18 19 20 21 22 23 24 25 26 27 28 29 30 31 32 33 34 35 36 37 38 39 40 41 42 43 44 45 46 47 48 49 50
000
AXUS43 KLBF 280610
MISLBF


WESTERN AND NORTH CENTRAL NEBRASKA HOURLY WEATHER ROUNDUP
NATIONAL WEATHER SERVICE NORTH PLATTE NE
100 AM CDT THU MAY 28 2015

***STATIONS NOT REPORTING VARIABLES SUCH AS SKY/WEATHER OR
PRESSURE ARE PROVIDED BY THE NEBRASKA DEPARTMENT OF
ROADS...RAWS...AND APRS NETWORKS...AND ARE NOT UNDER
NATIONAL WEATHER SERVICE QUALITY CONTROL***

...OBSERVATIONS IN AND NEAR THE EASTERN PANHANDLE OF NEBRASKA...

CITY           SKY/WX    TMP DP  RH WIND       PRES   REMARKS
PINE RIDGE     PTCLDY    61  54  77 S21G28    29.97F
CHADRON        MOCLDY    61  53  75 S22G32    29.96F
ALLIANCE       MOCLDY    57  53  86 S15G24    30.02F
SIDNEY         CLOUDY    58  53  84 NW6       30.11R
WHITECLAY        N/A     60  54  78 S18         N/A
BIG SPRINGS      N/A     57  54  91 S12         N/A
$$

...OBSERVATIONS IN NORTH CENTRAL NEBRASKA...

CITY           SKY/WX    TMP DP  RH WIND       PRES   REMARKS
VALENTINE      CLOUDY    62  55  77 S14       29.99S
THEDFORD       CLEAR     60  57  91 SW6       30.03F
AINSWORTH      MOCLDY    64  56  75 S10       30.01S
O`NEILL        MOCLDY    63  54  73 SE7       30.03S
ORD            MOCLDY    62  56  80 SE8       30.01F
BROKEN BOW     PTCLDY    59  55  87 SE3       30.03S
BROWNLEE         N/A     61  57  87 S13         N/A
VALENTINE NWR    N/A     58  58  99 S7          N/A
SPRINGVIEW       N/A     64  55  74 S5          N/A
HALSEY           N/A     60  56  86 S3          N/A
BREWSTER         N/A     62  60  91 S6          N/A
ROSE             N/A     64  63  94 E8          N/A
NEWPORT          N/A     67  59  74 S13         N/A
SARGENT          N/A     60  57  89 CALM        N/A
COMSTOCK         N/A     67  63  86 S9          N/A
EWING            N/A     65  55  70 CALM        N/A
$$

...OBSERVATIONS IN SOUTHWEST NEBRASKA AND FAR NORTHEAST COLORADO...

CITY           SKY/WX    TMP DP  RH WIND       PRES   REMARKS
WRAY           FAIR      57  55  91 S5        30.05F
HOLYOKE        FAIR      59  54  82 S9        30.06S
IMPERIAL       MOCLDY    57  53  86 S8        30.03F
OGALLALA       CLEAR     57  53  89 W5        30.04S
NORTH PLATTE   MOCLDY    60  56  86 CALM      30.02F
MCCOOK         CLOUDY    61  55  81 SW6       30.01F
LEXINGTON      MOCLDY    61  59  92 E6        30.02F
PAXTON           N/A     59  55  88 S8          N/A
GOTHENBURG       N/A     63  57  80 SE3         N/A
CALLAWAY         N/A     59  56  91 SE8         N/A
$$

...NORTH PLATTE AREA...

CITY           SKY/WX    TMP DP  RH WIND       PRES   REMARKS
AIRPORT        MOCLDY    60  56  86 CALM      30.02F
DOWNTOWN         N/A     61  56  84 CALM        N/A
$$

...SOME WEATHER OBSERVATIONS FROM AROUND THE REGION...

CITY           SKY/WX    TMP DP  RH WIND       PRES   REMARKS
DENVER         LGT RAIN  63  40  42 NW9G21    30.06F
LARAMIE        MOCLDY    45  39  79 S8        30.15S
CHEYENNE       LGT RAIN  54  50  86 SE8       30.11R
SCOTTSBLUFF    CLOUDY    60  54  80 VRB7      30.02R
RAPID CITY     PTCLDY    53  52  96 SE3       29.94F
PIERRE         CLOUDY    63  60  90 S12       29.93F
WINNER         FAIR      66  54  65 S8        29.97F
SIOUX FALLS    PTCLDY    65  50  58 S8        30.03S
OMAHA          CLOUDY    65  54  67 SE6       30.07S
GRAND ISLAND   CLOUDY    66  58  75 SE10      30.04F
KANSAS CITY    MOCLDY    69  55  60 SE8       30.09S
WICHITA        CLOUDY    72  67  84 S7        30.07S
HAYS           CLOUDY    63  52  67 CALM      30.05R
LIBERAL        CLOUDY    63  55  77 E12       30.06F
GOODLAND       MOCLDY    58  56  93 SE17G25   30.06F
$$



USA.gov is the U.S. government's official web portal to all federal, state and local government web resources and services.